TimeEDT,TemperatureF,Dew PointF,Humidity,Sea Level PressureIn,VisibilityMPH,Wind Direction,Wind SpeedMPH,Gust SpeedMPH,PrecipitationIn,Events,Conditions,WindDirDegrees,DateUTC
12:53 AM,44.1,26.1,49,29.84,9.0,WSW,3.5,-,N/A,,Clear,250,2012-11-01 04:53:00
1:53 AM,42.1,28.0,58,29.84,10.0,Calm,Calm,-,N/A,,Clear,0,2012-11-01 05:53:00
2:53 AM,37.9,28.9,70,29.84,10.0,Calm,Calm,-,N/A,,Clear,0,2012-11-01 06:53:00
3:53 AM,37.0,28.0,70,29.84,10.0,Calm,Calm,-,N/A,,Clear,0,2012-11-01 07:53:00
4:53 AM,36.0,28.0,73,29.84,9.0,Calm,Calm,-,N/A,,Clear,0,2012-11-01 08:53:00
5:53 AM,35.1,27.0,72,29.85,7.0,Calm,Calm,-,N/A,,Clear,0,2012-11-01 09:53:00
6:53 AM,34.0,27.0,75,29.87,8.0,SW,3.5,-,N/A,,Clear,230,2012-11-01 10:53:00
7:53 AM,37.9,27.0,65,29.88,9.0,WSW,3.5,-,N/A,,Clear,250,2012-11-01 11:53:00
8:53 AM,44.1,28.0,53,29.90,9.0,West,8.1,-,N/A,,Clear,270,2012-11-01 12:53:00
9:53 AM,50.0,27.0,41,29.91,9.0,West,11.5,17.3,N/A,,Clear,280,2012-11-01 13:53:00
10:53 AM,55.0,25.0,31,29.91,10.0,WNW,10.4,-,N/A,,Clear,300,2012-11-01 14:53:00
11:53 AM,57.0,21.9,26,29.90,10.0,WNW,11.5,-,N/A,,Clear,290,2012-11-01 15:53:00
12:53 PM,61.0,21.0,21,29.87,10.0,West,16.1,20.7,N/A,,Clear,270,2012-11-01 16:53:00
1:53 PM,63.0,21.0,20,29.83,10.0,West,15.0,21.9,N/A,,Clear,260,2012-11-01 17:53:00
2:53 PM,66.9,19.0,16,29.82,10.0,West,13.8,18.4,N/A,,Clear,260,2012-11-01 18:53:00
3:53 PM,66.0,17.1,15,29.83,10.0,WNW,13.8,20.7,N/A,,Clear,300,2012-11-01 19:53:00
4:53 PM,66.0,18.0,16,29.83,10.0,WNW,13.8,19.6,N/A,,Clear,290,2012-11-01 20:53:00
5:53 PM,64.0,18.0,17,29.84,10.0,WNW,10.4,-,N/A,,Clear,290,2012-11-01 21:53:00
6:53 PM,57.9,21.0,24,29.86,10.0,West,4.6,-,N/A,,Clear,280,2012-11-01 22:53:00
7:53 PM,50.0,25.0,38,29.89,10.0,SSW,3.5,-,N/A,,Clear,210,2012-11-01 23:53:00
8:53 PM,46.9,28.0,48,29.90,10.0,Calm,Calm,-,N/A,,Clear,0,2012-11-02 00:53:00
9:53 PM,44.1,28.0,53,29.92,10.0,Calm,Calm,-,N/A,,Clear,0,2012-11-02 01:53:00
10:53 PM,53.1,21.9,30,29.94,10.0,WNW,6.9,-,N/A,,Clear,290,2012-11-02 02:53:00
11:53 PM,52.0,21.0,30,29.94,10.0,WNW,6.9,-,N/A,,Clear,300,2012-11-02 03:53:00